CW8878 Weather Reports


Display with metric or nautical units.
time (UTC)temp
F
wind
direction
speed
MPH
gust
MPH
rain 1hr
in
rain 24hr
in
rain mn
in
humidity
%
barometer
mb
20210515173909 58 142 2.0 4.0 0.00 0.00 0.00 66 1009.4
20210515173400 59 69 2.0 6.0 0.00 0.00 0.00 65 1009.4
20210515172858 59 82 2.0 6.0 0.00 0.00 0.00 65 1009.3
20210515172349 59 102 3.0 6.0 0.00 0.00 0.00 65 1009.3
20210515171844 59 101 3.0 7.0 0.00 0.00 0.00 63 1009.3
20210515171345 60 94 3.0 7.0 0.00 0.00 0.00 64 1009.4
20210515170842 60 157 3.0 6.0 0.00 0.00 0.00 62 1009.5
20210515170328 61 83 3.0 8.0 0.00 0.00 0.00 62 1009.5
20210515165822 60 69 3.0 8.0 0.00 0.00 0.00 63 1009.3
20210515165314 60 77 3.0 5.0 0.00 0.00 0.00 64 1008.9
20210515164810 60 136 2.0 6.0 0.00 0.00 0.00 65 1008.9
20210515164300 60 139 2.0 6.0 0.00 0.00 0.00 66 1008.9
20210515163755 59 118 2.0 5.0 0.00 0.00 0.00 65 1008.8
20210515163251 60 114 2.0 5.0 0.00 0.00 0.00 62 1009.1
20210515162746 60 103 1.0 5.0 0.00 0.00 0.00 63 1009.2
20210515162242 61 174 1.0 5.0 0.00 0.00 0.00 63 1009.3
20210515161735 60 207 1.0 3.0 0.00 0.00 0.00 65 1009.2
20210515161234 60 174 1.0 4.0 0.00 0.00 0.00 64 1009.2
20210515160732 60 130 1.0 4.0 0.00 0.00 0.00 63 1009.2
20210515160233 60 127 0.0 2.0 0.00 0.00 0.00 64 1009.2
20210515155728 60 127 1.0 2.0 0.00 0.00 0.00 65 1009.1
20210515155229 59 127 1.0 4.0 0.00 0.00 0.00 67 1008.9
20210515154708 58 127 1.0 4.0 0.00 0.00 0.00 67 1008.8
20210515154206 57 126 2.0 5.0 0.00 0.00 0.00 68 1008.7
20210515153703 57 97 2.0 5.0 0.00 0.00 0.00 71 1008.5
20210515153203 56 82 2.0 5.0 0.00 0.00 0.00 71 1008.1
20210515152705 56 146 3.0 5.0 0.00 0.00 0.00 69 1008.2
20210515152204 56 95 3.0 6.0 0.00 0.00 0.00 71 1008.1
20210515151701 55 85 3.0 6.0 0.00 0.00 0.00 71 1008.0
20210515151158 55 83 2.0 5.0 0.00 0.00 0.00 72 1007.8
20210515150658 55 98 2.0 5.0 0.00 0.00 0.00 72 1007.9
20210515150159 55 128 2.0 4.0 0.00 0.00 0.00 70 1007.9
20210515145656 55 127 2.0 4.0 0.00 0.00 0.00 70 1007.8
20210515145155 55 86 1.0 4.0 0.00 0.00 0.00 70 1007.9
20210515144655 55 101 1.0 4.0 0.00 0.00 0.00 71 1007.9
20210515144156 55 101 1.0 4.0 0.00 0.00 0.00 72 1007.7
20210515143649 54 102 0.0 2.0 0.00 0.00 0.00 74 1007.6
20210515143137 53 102 1.0 4.0 0.00 0.00 0.00 74 1007.4
20210515142617 53 102 2.0 4.0 0.00 0.00 0.00 73 1007.3
20210515142123 53 102 2.0 4.0 0.00 0.00 0.00 73 1007.3
20210515141616 54 57 1.0 3.0 0.00 0.00 0.00 71 1007.3
20210515141115 54 36 1.0 2.0 0.00 0.00 0.00 71 1007.2
20210515140618 54 34 0.0 2.0 0.00 0.00 0.00 72 1007.1
20210515140118 54 34 0.0 1.0 0.00 0.00 0.00 73 1007.2
20210515135606 53 34 0.0 1.0 0.00 0.00 0.00 73 1006.8
20210515135056 53 34 0.0 0.0 0.00 0.00 0.00 75 1006.8
20210515134553 52 34 0.0 1.0 0.00 0.00 0.00 76 1006.6
20210515134053 52 34 0.0 2.0 0.00 0.00 0.00 76 1006.5
20210515133543 52 34 0.0 2.0 0.00 0.00 0.00 76 1006.3
20210515133043 52 34 0.0 0.0 0.00 0.00 0.00 75 1006.3
20210515132542 52 34 0.0 0.0 0.00 0.00 0.00 73 1006.4
20210515132037 52 34 0.0 0.0 0.00 0.00 0.00 73 1006.4
20210515131513 53 34 0.0 0.0 0.00 0.00 0.00 73 1006.4
20210515131010 53 34 0.0 2.0 0.00 0.00 0.00 69 1006.3
20210515130508 55 34 0.0 2.0 0.00 0.00 0.00 69 1006.5
20210515125958 56 34 0.0 0.0 0.00 0.00 0.00 71 1006.5
20210515125454 56 34 0.0 0.0 0.00 0.00 0.00 70 1006.5
20210515124941 56 34 0.0 0.0 0.00 0.00 0.00 70 1006.5
20210515124412 57 34 0.0 0.0 0.00 0.00 0.00 69 1006.5
20210515123909 57 34 0.0 0.0 0.00 0.00 0.00 69 1006.7
20210515123333 57 34 0.0 1.0 0.00 0.00 0.00 69 1006.6
20210515122814 58 34 0.0 0.0 0.00 0.00 0.00 69 1006.6
20210515122306 58 34 0.0 0.0 0.00 0.00 0.00 69 1006.5
20210515121732 58 34 0.0 0.0 0.00 0.00 0.00 69 1006.5
20210515121215 58 34 0.0 0.0 0.00 0.00 0.00 69 1006.5
20210515120708 58 34 0.0 0.0 0.00 0.00 0.00 69 1006.5
20210515120154 58 34 0.0 0.0 0.00 0.00 0.00 69 1006.5
20210515115647 58 34 1.0 3.0 0.00 0.00 0.00 69 1006.5
20210515115132 58 34 2.0 3.0 0.00 0.00 0.00 70 1006.5
20210515114631 58 34 1.0 3.0 0.00 0.00 0.00 70 1006.5
20210515114132 58 103 1.0 2.0 0.00 0.00 0.00 70 1006.5
20210515113628 58 108 1.0 2.0 0.00 0.00 0.00 69 1006.6
20210515113119 58 108 1.0 2.0 0.00 0.00 0.00 69 1006.8
20210515112613 58 108 0.0 2.0 0.00 0.00 0.00 68 1006.8
20210515112110 58 108 0.0 0.0 0.00 0.00 0.00 68 1006.8
20210515111600 58 108 0.0 2.0 0.00 0.00 0.00 67 1006.7
20210515111041 58 108 1.0 2.0 0.00 0.00 0.00 67 1006.7
20210515110535 59 108 1.0 2.0 0.00 0.00 0.00 67 1006.7
20210515110046 59 108 1.0 2.0 0.00 0.00 0.00 66 1006.7
20210515105532 59 108 1.0 2.0 0.00 0.00 0.00 66 1006.7
20210515105026 59 108 0.0 1.0 0.00 0.00 0.00 67 1006.7
20210515104526 59 108 0.0 1.0 0.00 0.00 0.00 67 1006.7
20210515104008 58 108 1.0 2.0 0.00 0.00 0.00 67 1006.7
20210515103505 58 108 1.0 2.0 0.00 0.00 0.00 68 1006.7
20210515103011 58 108 1.0 2.0 0.00 0.00 0.00 69 1006.7
20210515102458 58 108 0.0 2.0 0.00 0.00 0.00 69 1006.7
20210515101945 58 108 0.0 1.0 0.00 0.00 0.00 69 1006.7
20210515101435 58 108 0.0 1.0 0.00 0.00 0.00 69 1006.7
20210515100933 58 108 1.0 1.0 0.00 0.00 0.00 69 1006.8
20210515100414 58 108 1.0 2.0 0.00 0.00 0.00 69 1006.7
20210515095912 58 108 1.0 2.0 0.00 0.00 0.00 69 1006.7
20210515095413 58 108 1.0 2.0 0.00 0.00 0.00 68 1006.8
20210515094901 58 108 1.0 2.0 0.00 0.00 0.00 68 1006.8
20210515094401 58 108 1.0 2.0 0.00 0.00 0.00 68 1006.8
20210515093901 58 108 0.0 0.0 0.00 0.00 0.00 67 1006.8
20210515093313 58 108 0.0 0.0 0.00 0.00 0.00 67 1007.0
20210515092802 58 108 0.0 0.0 0.00 0.00 0.00 67 1007.0
20210515092300 58 108 0.0 0.0 0.00 0.00 0.00 67 1007.1
20210515091753 58 108 0.0 0.0 0.00 0.00 0.00 67 1007.1
20210515091237 58 108 0.0 0.0 0.00 0.00 0.00 66 1007.1
20210515090737 58 108 0.0 0.0 0.00 0.00 0.00 66 1007.1
20210515090208 58 108 0.0 0.0 0.00 0.00 0.00 66 1007.1
20210515085625 59 108 0.0 0.0 0.00 0.00 0.00 66 1007.2
20210515085121 59 108 0.0 0.0 0.00 0.00 0.00 65 1007.3
20210515084618 59 108 0.0 0.0 0.00 0.00 0.00 64 1007.2
20210515084116 59 108 0.0 0.0 0.00 0.00 0.00 63 1007.2
20210515083543 60 108 0.0 1.0 0.00 0.00 0.00 63 1007.3
20210515083042 60 108 0.0 2.0 0.00 0.00 0.00 61 1007.5
20210515082538 61 108 0.0 2.0 0.00 0.00 0.00 60 1007.5
20210515082035 61 108 1.0 2.0 0.00 0.00 0.00 59 1007.6
20210515081534 62 108 0.0 2.0 0.00 0.00 0.00 59 1007.7
20210515081010 62 317 0.0 0.0 0.00 0.00 0.00 58 1007.7
20210515080508 62 317 0.0 0.0 0.00 0.00 0.00 57 1007.7
20210515080011 63 317 0.0 0.0 0.00 0.00 0.00 56 1007.7
20210515075504 63 317 0.0 2.0 0.00 0.00 0.00 55 1007.8
20210515074948 63 317 0.0 2.0 0.00 0.00 0.00 55 1007.8
20210515074443 63 317 0.0 2.0 0.00 0.00 0.00 54 1007.9
20210515073900 64 317 0.0 1.0 0.00 0.00 0.00 53 1008.0
20210515073402 64 317 0.0 0.0 0.00 0.00 0.00 52 1008.0
20210515072855 64 317 0.0 2.0 0.00 0.00 0.00 53 1008.0
20210515072350 64 317 1.0 2.0 0.00 0.00 0.00 52 1007.9
20210515071851 64 317 0.0 2.0 0.00 0.00 0.00 52 1008.0
20210515071350 64 317 1.0 2.0 0.00 0.00 0.00 51 1008.0
20210515070847 65 317 1.0 2.0 0.00 0.00 0.00 51 1008.0
20210515070313 65 317 1.0 2.0 0.00 0.00 0.00 50 1008.0
20210515065808 65 317 1.0 2.0 0.00 0.00 0.00 50 1008.0
20210515065308 65 317 1.0 2.0 0.00 0.00 0.00 49 1008.1
20210515064802 65 317 1.0 2.0 0.00 0.00 0.00 49 1008.0
20210515064240 65 317 1.0 2.0 0.00 0.00 0.00 49 1007.9
20210515063740 65 317 1.0 2.0 0.00 0.00 0.00 50 1007.9
20210515063224 65 317 2.0 2.0 0.00 0.00 0.00 50 1007.8
20210515062723 65 317 2.0 3.0 0.00 0.00 0.00 51 1007.8
20210515062211 65 317 2.0 3.0 0.00 0.00 0.00 50 1007.8
20210515061709 65 317 2.0 3.0 0.00 0.00 0.00 50 1007.8
20210515061204 66 317 2.0 2.0 0.00 0.00 0.00 50 1007.9
20210515060651 66 317 1.0 2.0 0.00 0.00 0.00 49 1007.9
20210515060149 66 317 2.0 4.0 0.00 0.00 0.00 50 1007.9
20210515055647 65 317 2.0 4.0 0.00 0.00 0.00 50 1007.9
20210515055148 65 317 3.0 4.0 0.00 0.00 0.00 51 1007.9
20210515054638 66 0 2.0 4.0 0.00 0.00 0.00 51 1007.9
20210515054116 66 33 1.0 3.0 0.00 0.00 0.00 51 1007.9
20210515053610 67 85 1.0 2.0 0.00 0.00 0.00 50 1007.9
20210515053108 68 85 1.0 4.0 0.00 0.00 0.00 47 1008.0
20210515052604 68 86 2.0 5.0 0.00 0.00 0.00 45 1007.9
20210515052059 68 91 2.0 5.0 0.00 0.00 0.00 47 1008.0
20210515051558 68 93 2.0 5.0 0.00 0.00 0.00 47 1008.0
20210515051039 68 79 2.0 5.0 0.00 0.00 0.00 50 1007.9
20210515050543 68 92 3.0 5.0 0.00 0.00 0.00 51 1007.8
20210515050039 67 78 2.0 4.0 0.00 0.00 0.00 53 1007.7
20210515045522 67 79 1.0 4.0 0.00 0.00 0.00 54 1007.8
20210515045015 66 91 1.0 2.0 0.00 0.00 0.00 55 1007.7
20210515044514 67 91 1.0 2.0 0.00 0.00 0.00 55 1007.7
20210515044010 67 91 0.0 2.0 0.00 0.00 0.00 53 1007.7
20210515043459 68 91 0.0 1.0 0.00 0.00 0.00 53 1007.9
20210515042912 69 91 1.0 5.0 0.00 0.00 0.00 50 1007.8
20210515042410 68 91 1.0 5.0 0.00 0.00 0.00 51 1007.6
20210515041852 68 98 2.0 5.0 0.00 0.00 0.00 51 1007.6
20210515041359 68 98 1.0 5.0 0.00 0.00 0.00 52 1007.5
20210515040859 68 101 0.0 4.0 0.00 0.00 0.00 54 1007.4
20210515040348 68 101 0.0 2.0 0.00 0.00 0.00 55 1007.5
20210515035849 68 101 1.0 2.0 0.00 0.00 0.00 55 1007.4
20210515035346 68 101 0.0 2.0 0.00 0.00 0.00 54 1007.5
20210515034845 68 101 1.0 4.0 0.00 0.00 0.00 54 1007.3
20210515034347 68 101 2.0 5.0 0.00 0.00 0.00 54 1007.2
20210515033814 68 119 2.0 5.0 0.00 0.00 0.00 53 1007.2
20210515033316 69 115 0.0 2.0 0.00 0.00 0.00 53 1007.2
20210515032805 69 116 0.0 2.0 0.00 0.00 0.00 52 1007.3
20210515032221 69 116 1.0 4.0 0.00 0.00 0.00 52 1007.4
20210515031721 69 116 2.0 4.0 0.00 0.00 0.00 52 1007.5
20210515031213 69 143 2.0 5.0 0.00 0.00 0.00 52 1007.6
20210515030712 69 141 1.0 5.0 0.00 0.00 0.00 52 1007.5
20210515030212 70 161 1.0 5.0 0.00 0.00 0.00 51 1007.6
20210515025709 70 198 1.0 3.0 0.00 0.00 0.00 51 1007.7
20210515025200 70 202 1.0 4.0 0.00 0.00 0.00 51 1007.7
20210515024650 71 108 1.0 2.0 0.00 0.00 0.00 51 1007.7
20210515024152 71 182 1.0 2.0 0.00 0.00 0.00 50 1007.7
20210515023648 71 182 1.0 2.0 0.00 0.00 0.00 50 1007.8
20210515023145 72 182 1.0 4.0 0.00 0.00 0.00 49 1007.9
20210515022630 72 182 1.0 4.0 0.00 0.00 0.00 49 1007.9
20210515022115 72 198 0.0 3.0 0.00 0.00 0.00 49 1007.9
20210515021611 73 198 0.0 3.0 0.00 0.00 0.00 48 1008.0
20210515021109 73 198 0.0 3.0 0.00 0.00 0.00 48 1008.0
20210515020552 73 155 0.0 2.0 0.00 0.00 0.00 48 1008.0
20210515020101 73 155 0.0 2.0 0.00 0.00 0.00 47 1008.1
20210515015530 73 155 0.0 2.0 0.00 0.00 0.00 46 1008.4
20210515015031 74 96 1.0 5.0 0.00 0.00 0.00 45 1008.2
20210515014518 74 96 1.0 5.0 0.00 0.00 0.00 45 1008.2
20210515014012 74 163 0.0 4.0 0.00 0.00 0.00 44 1008.4
20210515013505 74 163 1.0 4.0 0.00 0.00 0.00 42 1008.5
20210515013001 74 162 1.0 4.0 0.00 0.00 0.00 41 1008.6
20210515012501 74 217 1.0 4.0 0.00 0.00 0.00 41 1008.6
20210515011953 75 163 1.0 4.0 0.00 0.00 0.00 39 1008.6
20210515011448 75 163 1.0 4.0 0.00 0.00 0.00 38 1008.7
20210515010919 75 162 1.0 4.0 0.00 0.00 0.00 37 1008.7
20210515010421 75 142 1.0 4.0 0.00 0.00 0.00 37 1008.8
20210515005922 76 142 1.0 5.0 0.00 0.00 0.00 36 1008.8
20210515005407 76 113 1.0 5.0 0.00 0.00 0.00 35 1008.9
20210515004853 76 197 1.0 4.0 0.00 0.00 0.00 34 1009.0
20210515004352 76 156 1.0 4.0 0.00 0.00 0.00 34 1009.0
20210515003851 76 161 0.0 2.0 0.00 0.00 0.00 35 1009.0
20210515003345 76 184 1.0 5.0 0.00 0.00 0.00 35 1009.1
20210515002830 76 161 1.0 5.0 0.00 0.00 0.00 33 1009.2
20210515002328 76 151 1.0 2.0 0.00 0.00 0.00 32 1009.2
20210515001816 76 151 1.0 4.0 0.00 0.00 0.00 32 1009.3
20210515001310 76 179 1.0 4.0 0.00 0.00 0.00 31 1009.4
20210515000810 76 179 1.0 4.0 0.00 0.00 0.00 30 1009.5
20210515000256 76 179 1.0 4.0 0.00 0.00 0.00 29 1009.5
20210514235752 76 148 0.0 4.0 0.00 0.00 0.00 31 1009.5
20210514235249 76 148 0.0 2.0 0.00 0.00 0.00 31 1009.5
20210514234754 76 148 1.0 5.0 0.00 0.00 0.00 31 1009.5
20210514234242 77 148 1.0 5.0 0.00 0.00 0.00 31 1009.6
20210514233729 77 172 1.0 6.0 0.00 0.00 0.00 31 1009.6
20210514233222 77 172 2.0 6.0 0.00 0.00 0.00 33 1009.8
20210514232713 77 113 1.0 5.0 0.00 0.00 0.00 32 1009.9
20210514232208 77 127 1.0 4.0 0.00 0.00 0.00 33 1009.9
20210514231701 77 118 2.0 5.0 0.00 0.00 0.00 34 1010.0
20210514231157 76 118 2.0 5.0 0.00 0.00 0.00 33 1010.0
20210514230659 76 84 1.0 5.0 0.00 0.00 0.00 35 1010.1
20210514230157 76 193 1.0 4.0 0.00 0.00 0.00 38 1010.0
20210514225649 76 180 0.0 4.0 0.00 0.00 0.00 36 1010.1
20210514225145 76 114 1.0 4.0 0.00 0.00 0.00 36 1010.2
20210514224646 76 113 1.0 5.0 0.00 0.00 0.00 35 1010.4
20210514224141 76 107 2.0 5.0 0.00 0.00 0.00 35 1010.5
20210514223640 76 169 2.0 7.0 0.00 0.00 0.00 37 1010.5
20210514223118 76 74 3.0 7.0 0.00 0.00 0.00 34 1010.6
20210514222614 77 158 3.0 6.0 0.00 0.00 0.00 34 1010.7
20210514222113 77 88 3.0 7.0 0.00 0.00 0.00 37 1010.9
20210514221611 78 126 3.0 7.0 0.00 0.00 0.00 34 1011.0
20210514221109 78 125 2.0 6.0 0.00 0.00 0.00 35 1011.2
20210514220556 78 158 3.0 8.0 0.00 0.00 0.00 34 1011.4
20210514220045 78 92 2.0 8.0 0.00 0.00 0.00 35 1011.4
20210514215526 78 79 2.0 7.0 0.00 0.00 0.00 35 1011.4
20210514215022 78 169 2.0 6.0 0.00 0.00 0.00 32 1011.5
20210514214513 78 94 2.0 5.0 0.00 0.00 0.00 37 1011.5
20210514214011 78 164 1.0 5.0 0.00 0.00 0.00 34 1011.6
20210514213503 78 154 1.0 4.0 0.00 0.00 0.00 36 1011.6
20210514212957 78 150 2.0 5.0 0.00 0.00 0.00 35 1011.7
20210514212450 78 153 2.0 6.0 0.00 0.00 0.00 35 1011.9
20210514211946 78 151 2.0 6.0 0.00 0.00 0.00 36 1011.9
20210514211439 78 150 2.0 6.0 0.00 0.00 0.00 36 1012.0
20210514210934 78 188 2.0 6.0 0.00 0.00 0.00 35 1012.0
20210514210426 79 66 2.0 5.0 0.00 0.00 0.00 34 1012.1
20210514205920 79 119 2.0 6.0 0.00 0.00 0.00 36 1012.3
20210514205414 79 176 3.0 6.0 0.00 0.00 0.00 36 1012.3
20210514204907 79 98 3.0 8.0 0.00 0.00 0.00 36 1012.3
20210514204404 79 158 3.0 8.0 0.00 0.00 0.00 33 1012.4
20210514203857 80 150 2.0 6.0 0.00 0.00 0.00 36 1012.6
20210514203350 80 161 2.0 6.0 0.00 0.00 0.00 37 1012.7
20210514202845 80 182 2.0 6.0 0.00 0.00 0.00 36 1012.8
20210514202343 80 73 3.0 6.0 0.00 0.00 0.00 36 1012.7
20210514201832 81 152 2.0 6.0 0.00 0.00 0.00 35 1012.9
20210514201340 81 117 1.0 6.0 0.00 0.00 0.00 36 1012.9
20210514200820 81 190 2.0 5.0 0.00 0.00 0.00 37 1013.0
20210514200316 80 86 2.0 6.0 0.00 0.00 0.00 38 1013.0
20210514195809 80 90 2.0 6.0 0.00 0.00 0.00 38 1012.9
20210514195305 80 138 2.0 5.0 0.00 0.00 0.00 39 1013.0
20210514194758 80 127 2.0 5.0 0.00 0.00 0.00 38 1013.0
20210514194250 79 161 2.0 4.0 0.00 0.00 0.00 39 1013.0
20210514193745 79 182 2.0 5.0 0.00 0.00 0.00 39 1012.9
20210514193240 79 135 2.0 5.0 0.00 0.00 0.00 41 1013.0
20210514192736 78 92 3.0 5.0 0.00 0.00 0.00 41 1013.0
20210514192239 79 105 3.0 6.0 0.00 0.00 0.00 40 1013.0
20210514191719 79 127 3.0 6.0 0.00 0.00 0.00 42 1013.1
20210514191214 78 96 3.0 6.0 0.00 0.00 0.00 44 1013.1
20210514190708 78 133 3.0 6.0 0.00 0.00 0.00 43 1013.1
20210514190203 77 122 3.0 6.0 0.00 0.00 0.00 43 1013.0
20210514185655 77 89 3.0 6.0 0.00 0.00 0.00 42 1013.1
20210514185153 77 80 2.0 5.0 0.00 0.00 0.00 43 1013.1
20210514184647 77 106 2.0 5.0 0.00 0.00 0.00 43 1013.1
20210514184138 77 107 2.0 5.0 0.00 0.00 0.00 44 1013.2
20210514183636 77 168 2.0 5.0 0.00 0.00 0.00 44 1013.1
20210514183135 77 180 2.0 5.0 0.00 0.00 0.00 44 1013.1
20210514182629 77 111 2.0 5.0 0.00 0.00 0.00 46 1013.1
20210514182116 77 135 2.0 5.0 0.00 0.00 0.00 44 1013.1
20210514181608 77 86 2.0 5.0 0.00 0.00 0.00 44 1013.2
20210514181105 77 138 3.0 5.0 0.00 0.00 0.00 45 1013.2
20210514180557 76 100 3.0 5.0 0.00 0.00 0.00 46 1013.1
20210514180109 76 83 3.0 5.0 0.00 0.00 0.00 46 1013.1
20210514175550 76 146 2.0 5.0 0.00 0.00 0.00 45 1013.1
20210514175039 76 123 2.0 5.0 0.00 0.00 0.00 46 1013.0
20210514174532 75 110 3.0 5.0 0.00 0.00 0.00 46 1012.9